| time (UTC) | temp C | wind direction | speed KPH | gust KPH | rain 1hr cm | rain 24hr cm | rain mn cm | humidity % | barometer mb |
| 20260510105121 | 19 | 241 | 0.0 | 0.0 | 0.00 | 0.13 | 0.13 | 99 | 1015.0 |
| 20260510104618 | 19 | 241 | 0.0 | 0.0 | 0.00 | 0.13 | 0.13 | 99 | 1014.9 |
| 20260510104115 | 19 | 241 | 0.0 | 0.0 | 0.00 | 0.13 | 0.13 | 99 | 1014.5 |
| 20260510103612 | 19 | 241 | 0.0 | 0.0 | 0.00 | 0.13 | 0.13 | 99 | 1014.7 |
| 20260510103108 | 19 | 241 | 0.0 | 0.0 | 0.00 | 0.13 | 0.13 | 99 | 1014.7 |
| 20260510102603 | 19 | 241 | 0.0 | 0.0 | 0.00 | 0.13 | 0.13 | 99 | 1014.5 |
| 20260510102059 | 19 | 241 | 0.0 | 0.0 | 0.00 | 0.13 | 0.13 | 99 | 1014.4 |
| 20260510101557 | 19 | 241 | 0.0 | 0.0 | 0.00 | 0.13 | 0.13 | 99 | 1014.3 |
| 20260510101055 | 19 | 241 | 0.0 | 0.0 | 0.00 | 0.13 | 0.13 | 99 | 1014.4 |
| 20260510100551 | 19 | 241 | 0.0 | 0.0 | 0.00 | 0.13 | 0.13 | 99 | 1014.3 |
| 20260510100049 | 19 | 241 | 0.0 | 0.0 | 0.00 | 0.13 | 0.13 | 99 | 1014.2 |
| 20260510095545 | 19 | 241 | 0.0 | 0.0 | 0.00 | 0.13 | 0.13 | 99 | 1014.2 |
| 20260510095044 | 19 | 241 | 0.0 | 0.0 | 0.00 | 0.13 | 0.13 | 99 | 1014.2 |
| 20260510094544 | 19 | 240 | 0.0 | 0.0 | 0.00 | 0.13 | 0.13 | 99 | 1014.4 |
| 20260510094039 | 19 | 240 | 0.0 | 0.0 | 0.00 | 0.13 | 0.13 | 99 | 1014.3 |
| 20260510093535 | 19 | 240 | 0.0 | 0.0 | 0.00 | 0.13 | 0.13 | 99 | 1014.3 |
| 20260510093033 | 19 | 240 | 0.0 | 0.0 | 0.00 | 0.13 | 0.13 | 99 | 1014.2 |
| 20260510092530 | 19 | 240 | 0.0 | 0.0 | 0.00 | 0.13 | 0.13 | 99 | 1014.1 |
| 20260510092029 | 19 | 240 | 0.0 | 0.0 | 0.00 | 0.13 | 0.13 | 99 | 1014.1 |
| 20260510091526 | 19 | 240 | 0.0 | 0.0 | 0.00 | 0.13 | 0.13 | 99 | 1014.6 |
| 20260510091022 | 19 | 240 | 0.0 | 0.0 | 0.00 | 0.13 | 0.13 | 99 | 1014.0 |
| 20260510090519 | 19 | 240 | 0.0 | 0.0 | 0.00 | 0.13 | 0.13 | 99 | 1014.0 |
| 20260510090015 | 19 | 240 | 0.0 | 0.0 | 0.00 | 0.13 | 0.13 | 99 | 1013.8 |
| 20260510085510 | 19 | 240 | 0.0 | 0.0 | 0.00 | 0.13 | 0.13 | 99 | 1013.9 |
| 20260510085006 | 19 | 240 | 0.0 | 0.0 | 0.00 | 0.13 | 0.13 | 99 | 1013.9 |
| 20260510084503 | 19 | 240 | 0.0 | 0.0 | 0.00 | 0.13 | 0.13 | 99 | 1013.9 |
| 20260510084000 | 19 | 240 | 0.0 | 0.0 | 0.00 | 0.13 | 0.13 | 99 | 1013.6 |
| 20260510083456 | 19 | 240 | 0.0 | 0.0 | 0.00 | 0.13 | 0.13 | 99 | 1013.9 |
| 20260510082951 | 19 | 240 | 0.0 | 0.0 | 0.00 | 0.13 | 0.13 | 99 | 1013.9 |
| 20260510082449 | 19 | 240 | 0.0 | 0.0 | 0.00 | 0.13 | 0.13 | 99 | 1013.9 |
| 20260510081949 | 19 | 238 | 0.0 | 0.0 | 0.00 | 0.13 | 0.13 | 99 | 1013.8 |
| 20260510081444 | 19 | 238 | 0.0 | 0.0 | 0.00 | 0.13 | 0.13 | 99 | 1013.8 |
| 20260510080941 | 19 | 214 | 0.0 | 0.0 | 0.00 | 0.13 | 0.13 | 99 | 1013.8 |
| 20260510080439 | 19 | 244 | 0.0 | 0.0 | 0.00 | 0.13 | 0.13 | 99 | 1013.6 |
| 20260510075936 | 19 | 236 | 0.0 | 0.0 | 0.00 | 0.13 | 0.13 | 99 | 1013.5 |
| 20260510075434 | 19 | 278 | 0.0 | 0.0 | 0.00 | 0.13 | 0.13 | 99 | 1013.8 |
| 20260510074931 | 19 | 279 | 0.0 | 0.0 | 0.00 | 0.13 | 0.13 | 99 | 1013.5 |
| 20260510074428 | 19 | 263 | 0.0 | 0.0 | 0.00 | 0.13 | 0.13 | 99 | 1013.4 |
| 20260510073925 | 19 | 260 | 0.0 | 0.0 | 0.00 | 0.13 | 0.13 | 99 | 1013.4 |
| 20260510073420 | 19 | 259 | 0.0 | 0.0 | 0.00 | 0.13 | 0.13 | 99 | 1013.7 |
| 20260510072917 | 19 | 260 | 0.0 | 0.0 | 0.13 | 0.13 | 0.13 | 99 | 1013.5 |
| 20260510072414 | 19 | 260 | 0.0 | 0.0 | 0.13 | 0.13 | 0.13 | 99 | 1013.6 |
| 20260510071909 | 19 | 260 | 0.0 | 0.0 | 0.00 | 0.10 | 0.10 | 99 | 1013.4 |
| 20260510071406 | 19 | 260 | 0.0 | 0.0 | 0.00 | 0.10 | 0.10 | 99 | 1013.5 |
| 20260510070905 | 19 | 260 | 0.0 | 0.0 | 0.00 | 0.10 | 0.10 | 99 | 1013.3 |
| 20260510070401 | 19 | 260 | 0.0 | 0.0 | 0.00 | 0.10 | 0.10 | 99 | 1013.3 |
| 20260510065856 | 19 | 260 | 0.0 | 0.0 | 0.18 | 0.10 | 0.10 | 99 | 1013.3 |
| 20260510065353 | 19 | 260 | 0.0 | 0.0 | 0.18 | 0.10 | 0.10 | 99 | 1013.5 |
| 20260510064850 | 19 | 260 | 0.0 | 0.0 | 0.00 | 0.08 | 0.08 | 99 | 1013.5 |
| 20260510064348 | 19 | 260 | 0.0 | 0.0 | 0.00 | 0.08 | 0.08 | 99 | 1013.5 |
| 20260510063844 | 19 | 260 | 0.0 | 0.0 | 0.00 | 0.08 | 0.08 | 99 | 1013.4 |
| 20260510063340 | 19 | 260 | 0.0 | 0.0 | 0.00 | 0.08 | 0.08 | 99 | 1013.5 |
| 20260510062837 | 19 | 260 | 0.0 | 0.0 | 0.00 | 0.08 | 0.08 | 99 | 1013.5 |
| 20260510062333 | 19 | 260 | 0.0 | 0.0 | 0.00 | 0.08 | 0.08 | 99 | 1013.8 |
| 20260510061828 | 19 | 260 | 0.0 | 0.0 | 0.00 | 0.08 | 0.08 | 99 | 1013.7 |
| 20260510061325 | 19 | 260 | 0.0 | 0.0 | 0.00 | 0.08 | 0.08 | 99 | 1013.7 |
| 20260510060821 | 19 | 260 | 0.0 | 0.0 | 0.00 | 0.08 | 0.08 | 99 | 1013.5 |
| 20260510060319 | 19 | 260 | 0.0 | 0.0 | 0.00 | 0.08 | 0.08 | 99 | 1013.4 |
| 20260510055815 | 19 | 260 | 0.0 | 0.0 | 0.00 | 0.08 | 0.08 | 99 | 1013.7 |
| 20260510055314 | 19 | 260 | 0.0 | 0.0 | 0.00 | 0.08 | 0.08 | 99 | 1013.7 |
| 20260510054813 | 19 | 260 | 0.0 | 0.0 | 0.00 | 0.08 | 0.08 | 99 | 1013.4 |
| 20260510054309 | 19 | 260 | 0.0 | 0.0 | 0.00 | 0.08 | 0.08 | 99 | 1014.0 |
| 20260510053804 | 19 | 259 | 0.0 | 0.0 | 0.00 | 0.08 | 0.08 | 99 | 1013.9 |
| 20260510053259 | 19 | 263 | 0.0 | 0.0 | 0.00 | 0.08 | 0.08 | 99 | 1014.0 |
| 20260510052755 | 19 | 263 | 0.0 | 0.0 | 0.00 | 0.08 | 0.08 | 99 | 1013.7 |
| 20260510052246 | 20 | 263 | 0.0 | 0.0 | 0.00 | 0.08 | 0.08 | 99 | 1013.7 |
| 20260510051742 | 20 | 263 | 0.0 | 0.0 | 0.00 | 0.08 | 0.08 | 99 | 1014.1 |
| 20260510051239 | 20 | 263 | 0.0 | 0.0 | 0.00 | 0.08 | 0.08 | 99 | 1014.1 |
| 20260510050736 | 20 | 263 | 0.0 | 0.0 | 0.00 | 0.08 | 0.08 | 99 | 1014.3 |
| 20260510050233 | 20 | 263 | 0.0 | 0.0 | 0.13 | 0.08 | 0.08 | 99 | 1014.2 |
| 20260510045730 | 20 | 263 | 0.0 | 0.0 | 0.00 | 0.05 | 0.05 | 99 | 1014.3 |
| 20260510045226 | 20 | 263 | 0.0 | 0.0 | 0.00 | 0.05 | 0.05 | 99 | 1014.3 |
| 20260510044723 | 20 | 262 | 0.0 | 0.0 | 0.18 | 0.05 | 0.05 | 99 | 1014.4 |
| 20260510044221 | 20 | 264 | 0.0 | 0.0 | 0.18 | 0.05 | 0.05 | 99 | 1014.3 |
| 20260510043716 | 20 | 263 | 0.0 | 0.0 | 0.00 | 0.03 | 0.03 | 99 | 1014.3 |
| 20260510043213 | 20 | 265 | 0.0 | 0.0 | 0.00 | 0.03 | 0.03 | 99 | 1014.0 |
| 20260510042710 | 20 | 267 | 0.0 | 0.0 | 0.00 | 0.03 | 0.03 | 99 | 1014.3 |
| 20260510042206 | 20 | 267 | 0.0 | 0.0 | 0.13 | 0.03 | 0.03 | 99 | 1014.2 |
| 20260510041704 | 20 | 269 | 0.0 | 0.0 | 0.13 | 0.03 | 0.03 | 99 | 1014.0 |
| 20260510041201 | 20 | 269 | 0.0 | 0.0 | 0.13 | 0.03 | 0.03 | 99 | 1014.2 |
| 20260510040657 | 20 | 268 | 0.0 | 0.0 | 0.00 | 0.00 | 0.00 | 99 | 1013.9 |
| 20260510040154 | 20 | 271 | 0.0 | 0.0 | 0.00 | 0.00 | 0.00 | 99 | 1014.1 |
| 20260510035650 | 20 | 264 | 0.0 | 1.6 | 0.00 | 0.48 | 0.48 | 99 | 1014.1 |
| 20260510035145 | 20 | 306 | 0.0 | 0.0 | 0.00 | 0.48 | 0.48 | 99 | 1014.1 |
| 20260510034642 | 20 | 41 | 0.0 | 0.0 | 0.00 | 0.48 | 0.48 | 99 | 1013.8 |
| 20260510034139 | 20 | 313 | 0.0 | 0.0 | 0.00 | 0.48 | 0.48 | 99 | 1013.5 |
| 20260510033635 | 20 | 245 | 0.0 | 0.0 | 0.00 | 0.48 | 0.48 | 99 | 1013.4 |
| 20260510033133 | 20 | 182 | 0.0 | 0.0 | 0.00 | 0.48 | 0.48 | 99 | 1013.5 |
| 20260510032630 | 20 | 204 | 0.0 | 0.0 | 0.00 | 0.48 | 0.48 | 99 | 1013.5 |
| 20260510032125 | 20 | 213 | 3.2 | 3.2 | 0.00 | 0.48 | 0.48 | 99 | 1013.8 |
| 20260510031620 | 20 | 263 | 0.0 | 1.6 | 0.00 | 0.48 | 0.48 | 99 | 1013.7 |
| 20260510031117 | 20 | 259 | 0.0 | 0.0 | 0.00 | 0.48 | 0.48 | 99 | 1013.8 |
| 20260510030611 | 20 | 250 | 0.0 | 0.0 | 0.00 | 0.48 | 0.48 | 99 | 1013.7 |
| 20260510030109 | 20 | 262 | 0.0 | 0.0 | 0.00 | 0.48 | 0.48 | 99 | 1013.5 |
| 20260510025606 | 20 | 256 | 0.0 | 0.0 | 0.00 | 0.48 | 0.48 | 99 | 1013.4 |
| 20260510025104 | 20 | 248 | 0.0 | 1.6 | 0.00 | 0.48 | 0.48 | 99 | 1013.4 |
| 20260510024600 | 20 | 236 | 0.0 | 1.6 | 0.00 | 0.48 | 0.48 | 99 | 1013.3 |
| 20260510024057 | 20 | 247 | 0.0 | 0.0 | 0.00 | 0.48 | 0.48 | 99 | 1013.2 |
| 20260510023553 | 20 | 261 | 0.0 | 0.0 | 0.00 | 0.48 | 0.48 | 99 | 1013.4 |
| 20260510023050 | 20 | 195 | 0.0 | 0.0 | 0.00 | 0.48 | 0.48 | 99 | 1013.4 |
| 20260510022544 | 20 | 190 | 0.0 | 0.0 | 0.00 | 0.48 | 0.48 | 99 | 1013.3 |
| 20260510022043 | 20 | 305 | 0.0 | 0.0 | 0.00 | 0.48 | 0.48 | 99 | 1013.1 |
| 20260510021540 | 20 | 306 | 0.0 | 0.0 | 0.00 | 0.48 | 0.48 | 99 | 1013.4 |
| 20260510021038 | 20 | 306 | 0.0 | 0.0 | 0.00 | 0.48 | 0.48 | 99 | 1013.3 |
| 20260510020532 | 20 | 306 | 0.0 | 0.0 | 0.00 | 0.48 | 0.48 | 99 | 1013.4 |
| 20260510020028 | 20 | 306 | 0.0 | 0.0 | 0.00 | 0.48 | 0.48 | 99 | 1013.2 |
| 20260510015523 | 20 | 306 | 0.0 | 0.0 | 0.00 | 0.48 | 0.48 | 99 | 1013.3 |
| 20260510015020 | 20 | 307 | 0.0 | 0.0 | 0.00 | 0.48 | 0.48 | 99 | 1013.2 |
| 20260510014517 | 20 | 294 | 0.0 | 0.0 | 0.00 | 0.48 | 0.48 | 99 | 1013.2 |
| 20260510014014 | 20 | 296 | 0.0 | 0.0 | 0.00 | 0.48 | 0.48 | 99 | 1013.0 |
| 20260510013508 | 20 | 305 | 0.0 | 0.0 | 0.18 | 0.48 | 0.48 | 99 | 1013.1 |
| 20260510013004 | 20 | 300 | 0.0 | 0.0 | 0.00 | 0.46 | 0.46 | 99 | 1012.9 |
| 20260510012458 | 20 | 313 | 0.0 | 0.0 | 0.00 | 0.46 | 0.46 | 99 | 1013.2 |
| 20260510011954 | 20 | 283 | 0.0 | 0.0 | 0.00 | 0.46 | 0.46 | 99 | 1013.1 |
| 20260510011449 | 20 | 266 | 0.0 | 0.0 | 0.00 | 0.46 | 0.46 | 99 | 1013.0 |
| 20260510010945 | 20 | 262 | 0.0 | 0.0 | 0.00 | 0.46 | 0.46 | 99 | 1013.0 |
| 20260510010443 | 20 | 273 | 0.0 | 0.0 | 0.18 | 0.46 | 0.46 | 99 | 1012.9 |
| 20260510005939 | 20 | 328 | 0.0 | 0.0 | 0.18 | 0.46 | 0.46 | 99 | 1013.1 |
| 20260510005435 | 20 | 305 | 0.0 | 0.0 | 0.00 | 0.43 | 0.43 | 99 | 1013.0 |
| 20260510004933 | 20 | 209 | 1.6 | 3.2 | 0.13 | 0.43 | 0.43 | 99 | 1013.1 |
| 20260510004430 | 20 | 235 | 0.0 | 0.0 | 0.30 | 0.43 | 0.43 | 99 | 1013.1 |
| 20260510003928 | 20 | 198 | 3.2 | 3.2 | 0.18 | 0.41 | 0.41 | 99 | 1013.0 |
| 20260510003425 | 20 | 259 | 0.0 | 0.0 | 0.00 | 0.38 | 0.38 | 99 | 1013.0 |
| 20260510002924 | 20 | 266 | 0.0 | 0.0 | 0.00 | 0.38 | 0.38 | 99 | 1012.9 |
| 20260510002421 | 20 | 244 | 0.0 | 0.0 | 0.00 | 0.38 | 0.38 | 99 | 1012.9 |
| 20260510001918 | 20 | 251 | 0.0 | 0.0 | 0.00 | 0.38 | 0.38 | 99 | 1013.2 |
| 20260510001415 | 20 | 183 | 0.0 | 0.0 | 0.13 | 0.38 | 0.38 | 99 | 1013.1 |
| 20260510000912 | 20 | 284 | 0.0 | 0.0 | 0.13 | 0.38 | 0.38 | 99 | 1012.9 |
| 20260510000411 | 20 | 267 | 0.0 | 0.0 | 0.00 | 0.36 | 0.36 | 99 | 1012.7 |
| 20260509235905 | 20 | 266 | 0.0 | 0.0 | 0.00 | 0.36 | 0.36 | 99 | 1012.8 |
| 20260509235402 | 20 | 257 | 0.0 | 1.6 | 0.00 | 0.36 | 0.36 | 99 | 1012.5 |
| 20260509234858 | 20 | 266 | 0.0 | 0.0 | 0.00 | 0.36 | 0.36 | 99 | 1012.5 |
| 20260509234355 | 21 | 244 | 1.6 | 1.6 | 0.00 | 0.36 | 0.36 | 99 | 1012.5 |
| 20260509233853 | 21 | 250 | 0.0 | 0.0 | 0.00 | 0.36 | 0.36 | 99 | 1012.5 |
| 20260509233351 | 21 | 231 | 0.0 | 0.0 | 0.00 | 0.36 | 0.36 | 99 | 1012.6 |
| 20260509232846 | 21 | 322 | 0.0 | 0.0 | 0.00 | 0.36 | 0.36 | 99 | 1012.6 |
| 20260509232344 | 20 | 322 | 0.0 | 0.0 | 0.00 | 0.36 | 0.36 | 99 | 1012.3 |
| 20260509231840 | 20 | 322 | 0.0 | 0.0 | 0.00 | 0.36 | 0.36 | 99 | 1012.1 |
| 20260509231337 | 20 | 322 | 0.0 | 0.0 | 0.00 | 0.36 | 0.36 | 99 | 1012.0 |
| 20260509230835 | 20 | 323 | 0.0 | 0.0 | 0.18 | 0.36 | 0.36 | 99 | 1011.7 |
| 20260509230332 | 20 | 323 | 0.0 | 0.0 | 0.18 | 0.36 | 0.36 | 99 | 1011.8 |
| 20260509225826 | 21 | 302 | 0.0 | 0.0 | 0.13 | 0.33 | 0.33 | 99 | 1012.0 |
| 20260509225324 | 21 | 301 | 0.0 | 0.0 | 0.13 | 0.33 | 0.33 | 99 | 1012.2 |
| 20260509224820 | 21 | 319 | 0.0 | 0.0 | 0.30 | 0.30 | 0.30 | 99 | 1012.2 |
| 20260509224316 | 21 | 269 | 0.0 | 0.0 | 0.30 | 0.30 | 0.30 | 99 | 1012.5 |
| 20260509223813 | 21 | 204 | 1.6 | 3.2 | 0.00 | 0.25 | 0.25 | 99 | 1012.2 |
| 20260509223310 | 21 | 252 | 0.0 | 0.0 | 0.00 | 0.25 | 0.25 | 99 | 1012.4 |
| 20260509222807 | 21 | 273 | 0.0 | 0.0 | 0.00 | 0.25 | 0.25 | 99 | 1012.2 |
| 20260509222306 | 21 | 303 | 0.0 | 0.0 | 0.00 | 0.25 | 0.25 | 99 | 1012.1 |
| 20260509221758 | 21 | 303 | 0.0 | 0.0 | 0.00 | 0.25 | 0.25 | 99 | 1012.1 |
| 20260509221255 | 21 | 267 | 0.0 | 0.0 | 0.00 | 0.25 | 0.25 | 99 | 1012.1 |
| 20260509220750 | 21 | 231 | 0.0 | 0.0 | 0.00 | 0.25 | 0.25 | 98 | 1012.2 |
| 20260509220247 | 21 | 304 | 0.0 | 0.0 | 0.00 | 0.25 | 0.25 | 98 | 1012.2 |
| 20260509215742 | 21 | 289 | 0.0 | 0.0 | 0.00 | 0.25 | 0.25 | 98 | 1012.3 |
| 20260509215239 | 21 | 295 | 0.0 | 0.0 | 0.00 | 0.25 | 0.25 | 98 | 1011.8 |
| 20260509214736 | 21 | 193 | 1.6 | 1.6 | 0.00 | 0.25 | 0.25 | 98 | 1011.9 |
| 20260509214234 | 21 | 165 | 1.6 | 3.2 | 0.00 | 0.25 | 0.25 | 98 | 1012.4 |
| 20260509213730 | 21 | 126 | 1.6 | 1.6 | 0.00 | 0.25 | 0.25 | 98 | 1012.6 |
| 20260509213226 | 21 | 276 | 0.0 | 0.0 | 0.00 | 0.25 | 0.25 | 98 | 1012.3 |
| 20260509212724 | 21 | 272 | 0.0 | 0.0 | 0.00 | 0.25 | 0.25 | 98 | 1012.3 |
| 20260509212220 | 21 | 274 | 0.0 | 0.0 | 0.00 | 0.25 | 0.25 | 98 | 1012.1 |
| 20260509211716 | 21 | 330 | 0.0 | 1.6 | 0.00 | 0.25 | 0.25 | 98 | 1011.9 |
| 20260509211213 | 21 | 8 | 1.6 | 1.6 | 0.18 | 0.25 | 0.25 | 98 | 1012.1 |
| 20260509210709 | 21 | 317 | 0.0 | 1.6 | 0.18 | 0.25 | 0.25 | 98 | 1012.0 |
| 20260509210207 | 21 | 327 | 0.0 | 0.0 | 0.00 | 0.23 | 0.23 | 98 | 1011.9 |
| 20260509205707 | 21 | 275 | 0.0 | 0.0 | 0.00 | 0.23 | 0.23 | 98 | 1011.9 |
| 20260509205206 | 21 | 160 | 1.6 | 1.6 | 0.00 | 0.23 | 0.23 | 98 | 1012.0 |
| 20260509204703 | 21 | 278 | 0.0 | 1.6 | 0.00 | 0.23 | 0.23 | 98 | 1012.3 |
| 20260509204159 | 21 | 249 | 0.0 | 0.0 | 0.00 | 0.23 | 0.23 | 98 | 1012.2 |
| 20260509203655 | 21 | 272 | 1.6 | 1.6 | 0.00 | 0.23 | 0.23 | 98 | 1012.2 |
| 20260509203154 | 21 | 195 | 1.6 | 3.2 | 0.00 | 0.23 | 0.23 | 98 | 1012.0 |
| 20260509202648 | 21 | 273 | 0.0 | 1.6 | 0.00 | 0.23 | 0.23 | 98 | 1012.1 |
| 20260509202144 | 21 | 309 | 0.0 | 0.0 | 0.00 | 0.23 | 0.23 | 98 | 1012.2 |
| 20260509201634 | 21 | 293 | 1.6 | 1.6 | 0.00 | 0.23 | 0.23 | 98 | 1012.1 |
| 20260509201131 | 21 | 269 | 3.2 | 3.2 | 0.00 | 0.23 | 0.23 | 98 | 1011.9 |
| 20260509200626 | 21 | 144 | 6.4 | 9.7 | 0.00 | 0.23 | 0.23 | 98 | 1011.8 |
| 20260509200117 | 21 | 187 | 6.4 | 8.0 | 0.00 | 0.23 | 0.23 | 98 | 1011.9 |
| 20260509195613 | 21 | 222 | 4.8 | 8.0 | 0.00 | 0.23 | 0.23 | 98 | 1012.1 |
| 20260509195108 | 21 | 236 | 1.6 | 1.6 | 0.00 | 0.23 | 0.23 | 98 | 1012.1 |
| 20260509194607 | 21 | 197 | 3.2 | 3.2 | 0.00 | 0.23 | 0.23 | 98 | 1011.9 |
| 20260509194105 | 21 | 251 | 4.8 | 8.0 | 0.00 | 0.23 | 0.23 | 97 | 1012.1 |
| 20260509193601 | 21 | 202 | 3.2 | 3.2 | 0.00 | 0.23 | 0.23 | 97 | 1012.3 |
| 20260509193057 | 21 | 196 | 4.8 | 4.8 | 0.00 | 0.23 | 0.23 | 97 | 1012.1 |
| 20260509192554 | 21 | 198 | 3.2 | 3.2 | 0.00 | 0.23 | 0.23 | 97 | 1012.3 |
| 20260509192049 | 21 | 269 | 0.0 | 0.0 | 0.00 | 0.23 | 0.23 | 97 | 1012.5 |
| 20260509191548 | 21 | 273 | 0.0 | 0.0 | 0.00 | 0.23 | 0.23 | 97 | 1012.6 |
| 20260509191044 | 21 | 157 | 3.2 | 3.2 | 0.13 | 0.23 | 0.23 | 97 | 1012.6 |
| 20260509190541 | 21 | 256 | 0.0 | 1.6 | 0.13 | 0.23 | 0.23 | 97 | 1012.9 |
| 20260509190040 | 21 | 272 | 0.0 | 0.0 | 0.00 | 0.20 | 0.20 | 97 | 1012.8 |
| 20260509185537 | 21 | 215 | 1.6 | 3.2 | 0.00 | 0.20 | 0.20 | 96 | 1012.9 |
| 20260509185033 | 21 | 297 | 0.0 | 0.0 | 0.18 | 0.20 | 0.20 | 96 | 1012.8 |
| 20260509184531 | 21 | 306 | 0.0 | 0.0 | 0.18 | 0.20 | 0.20 | 96 | 1012.9 |
| 20260509184027 | 22 | 297 | 1.6 | 3.2 | 0.00 | 0.18 | 0.18 | 96 | 1012.7 |
| 20260509183522 | 21 | 320 | 0.0 | 0.0 | 0.13 | 0.18 | 0.18 | 95 | 1012.9 |
| 20260509183019 | 21 | 283 | 0.0 | 1.6 | 0.13 | 0.18 | 0.18 | 95 | 1012.9 |
| 20260509182515 | 21 | 247 | 0.0 | 1.6 | 0.18 | 0.15 | 0.15 | 95 | 1013.0 |
| 20260509182012 | 22 | 91 | 1.6 | 1.6 | 0.18 | 0.15 | 0.15 | 94 | 1013.1 |
| 20260509181510 | 22 | 79 | 1.6 | 3.2 | 0.18 | 0.13 | 0.13 | 93 | 1013.1 |
| 20260509181008 | 22 | 270 | 1.6 | 1.6 | 0.30 | 0.13 | 0.13 | 92 | 1013.1 |
| 20260509180502 | 22 | 125 | 0.0 | 0.0 | 0.30 | 0.10 | 0.10 | 91 | 1013.1 |
| 20260509180000 | 23 | 194 | 0.0 | 1.6 | 0.30 | 0.08 | 0.08 | 90 | 1013.3 |
| 20260509175456 | 23 | 210 | 0.0 | 0.0 | 0.13 | 0.05 | 0.05 | 89 | 1013.1 |
| 20260509174953 | 23 | 298 | 1.6 | 1.6 | 0.18 | 0.03 | 0.03 | 88 | 1013.0 |
| 20260509174449 | 24 | 173 | 0.0 | 0.0 | 0.18 | 0.03 | 0.03 | 86 | 1013.4 |
| 20260509173945 | 24 | 159 | 1.6 | 1.6 | 0.00 | 0.00 | 0.00 | 85 | 1013.5 |
| 20260509173444 | 24 | 131 | 3.2 | 4.8 | 0.00 | 0.00 | 0.00 | 85 | 1013.1 |
| 20260509172942 | 25 | 351 | 1.6 | 3.2 | 0.00 | 0.00 | 0.00 | 86 | 1013.1 |
| 20260509172439 | 25 | 158 | 1.6 | 1.6 | 0.00 | 0.00 | 0.00 | 85 | 1013.1 |
| 20260509171934 | 25 | 19 | 0.0 | 0.0 | 0.00 | 0.00 | 0.00 | 85 | 1012.9 |
| 20260509171430 | 25 | 333 | 1.6 | 1.6 | 0.00 | 0.00 | 0.00 | 85 | 1013.2 |
| 20260509170927 | 25 | 44 | 0.0 | 1.6 | 0.00 | 0.00 | 0.00 | 86 | 1012.9 |
| 20260509170422 | 25 | 238 | 0.0 | 0.0 | 0.00 | 0.00 | 0.00 | 86 | 1012.8 |
| 20260509165919 | 25 | 292 | 1.6 | 1.6 | 0.00 | 0.00 | 0.00 | 86 | 1012.9 |
| 20260509165413 | 25 | 202 | 0.0 | 1.6 | 0.00 | 0.00 | 0.00 | 86 | 1012.8 |
| 20260509164909 | 25 | 178 | 1.6 | 1.6 | 0.00 | 0.00 | 0.00 | 86 | 1012.8 |
| 20260509164405 | 25 | 186 | 0.0 | 1.6 | 0.00 | 0.00 | 0.00 | 86 | 1013.1 |
| 20260509163901 | 25 | 237 | 0.0 | 1.6 | 0.00 | 0.00 | 0.00 | 86 | 1013.2 |
| 20260509163358 | 25 | 326 | 0.0 | 1.6 | 0.00 | 0.00 | 0.00 | 86 | 1013.3 |
| 20260509162857 | 25 | 203 | 3.2 | 4.8 | 0.00 | 0.00 | 0.00 | 85 | 1013.3 |
| 20260509162356 | 25 | 260 | 1.6 | 1.6 | 0.00 | 0.00 | 0.00 | 85 | 1013.1 |
| 20260509161851 | 25 | 170 | 3.2 | 3.2 | 0.00 | 0.00 | 0.00 | 84 | 1013.2 |
| 20260509161348 | 25 | 166 | 4.8 | 8.0 | 0.00 | 0.00 | 0.00 | 85 | 1013.3 |
| 20260509160844 | 25 | 194 | 4.8 | 4.8 | 0.00 | 0.00 | 0.00 | 84 | 1012.8 |
| 20260509160339 | 25 | 146 | 4.8 | 4.8 | 0.00 | 0.00 | 0.00 | 85 | 1012.9 |
| 20260509155835 | 25 | 231 | 3.2 | 3.2 | 0.00 | 0.00 | 0.00 | 86 | 1013.1 |
| 20260509155332 | 25 | 266 | 1.6 | 1.6 | 0.00 | 0.00 | 0.00 | 86 | 1013.2 |
| 20260509154829 | 25 | 210 | 3.2 | 4.8 | 0.00 | 0.00 | 0.00 | 86 | 1013.3 |
| 20260509154325 | 25 | 159 | 3.2 | 3.2 | 0.00 | 0.00 | 0.00 | 85 | 1013.1 |
| 20260509153822 | 25 | 292 | 1.6 | 1.6 | 0.00 | 0.00 | 0.00 | 86 | 1013.3 |
| 20260509153319 | 25 | 222 | 0.0 | 1.6 | 0.00 | 0.00 | 0.00 | 86 | 1013.4 |
| 20260509152815 | 25 | 182 | 3.2 | 3.2 | 0.00 | 0.00 | 0.00 | 86 | 1012.9 |
| 20260509152312 | 25 | 275 | 1.6 | 3.2 | 0.00 | 0.00 | 0.00 | 87 | 1013.3 |
| 20260509151809 | 24 | 318 | 1.6 | 1.6 | 0.00 | 0.00 | 0.00 | 87 | 1013.3 |
| 20260509151305 | 24 | 274 | 0.0 | 1.6 | 0.00 | 0.00 | 0.00 | 87 | 1013.4 |
| 20260509150804 | 23 | 184 | 4.8 | 8.0 | 0.00 | 0.00 | 0.00 | 87 | 1013.3 |
| 20260509150301 | 23 | 233 | 0.0 | 1.6 | 0.00 | 0.00 | 0.00 | 87 | 1013.5 |
| 20260509145758 | 23 | 167 | 3.2 | 3.2 | 0.00 | 0.00 | 0.00 | 88 | 1013.7 |
| 20260509145257 | 23 | 249 | 1.6 | 1.6 | 0.00 | 0.00 | 0.00 | 88 | 1013.6 |
| 20260509144754 | 23 | 290 | 0.0 | 1.6 | 0.00 | 0.00 | 0.00 | 89 | 1013.7 |
| 20260509144251 | 23 | 179 | 1.6 | 3.2 | 0.00 | 0.00 | 0.00 | 89 | 1013.4 |
| 20260509143748 | 23 | 281 | 0.0 | 0.0 | 0.00 | 0.00 | 0.00 | 89 | 1013.8 |
| 20260509143245 | 23 | 134 | 1.6 | 3.2 | 0.00 | 0.00 | 0.00 | 89 | 1013.9 |
| 20260509142741 | 23 | 250 | 1.6 | 1.6 | 0.00 | 0.00 | 0.00 | 89 | 1013.7 |
| 20260509142237 | 23 | 246 | 0.0 | 1.6 | 0.00 | 0.00 | 0.00 | 90 | 1013.6 |
| 20260509141733 | 23 | 218 | 0.0 | 0.0 | 0.00 | 0.00 | 0.00 | 91 | 1013.5 |
| 20260509141231 | 23 | 104 | 3.2 | 3.2 | 0.00 | 0.00 | 0.00 | 91 | 1013.5 |
| 20260509140727 | 23 | 274 | 1.6 | 1.6 | 0.00 | 0.00 | 0.00 | 92 | 1013.7 |
| 20260509140225 | 23 | 195 | 1.6 | 1.6 | 0.00 | 0.00 | 0.00 | 92 | 1013.4 |
| 20260509135722 | 23 | 286 | 0.0 | 0.0 | 0.00 | 0.00 | 0.00 | 94 | 1013.5 |
| 20260509135220 | 22 | 274 | 0.0 | 0.0 | 0.00 | 0.00 | 0.00 | 94 | 1013.5 |
| 20260509134717 | 22 | 205 | 1.6 | 3.2 | 0.00 | 0.00 | 0.00 | 95 | 1013.3 |
| 20260509134214 | 22 | 255 | 0.0 | 1.6 | 0.00 | 0.00 | 0.00 | 96 | 1013.3 |
| 20260509133711 | 22 | 191 | 1.6 | 3.2 | 0.00 | 0.00 | 0.00 | 96 | 1013.5 |
| 20260509133208 | 22 | 190 | 4.8 | 4.8 | 0.00 | 0.00 | 0.00 | 96 | 1013.4 |
| 20260509132706 | 22 | 277 | 0.0 | 0.0 | 0.00 | 0.00 | 0.00 | 97 | 1013.3 |
| 20260509132204 | 22 | 180 | 3.2 | 4.8 | 0.00 | 0.00 | 0.00 | 98 | 1013.5 |
| 20260509131700 | 22 | 260 | 1.6 | 3.2 | 0.00 | 0.00 | 0.00 | 98 | 1013.4 |
| 20260509131152 | 22 | 240 | 1.6 | 3.2 | 0.00 | 0.00 | 0.00 | 98 | 1013.1 |
| 20260509130648 | 22 | 230 | 1.6 | 1.6 | 0.00 | 0.00 | 0.00 | 98 | 1013.3 |
| 20260509130144 | 22 | 179 | 3.2 | 3.2 | 0.00 | 0.00 | 0.00 | 98 | 1013.5 |
| 20260509125641 | 21 | 259 | 0.0 | 0.0 | 0.00 | 0.00 | 0.00 | 98 | 1013.1 |
| 20260509125138 | 21 | 261 | 0.0 | 0.0 | 0.00 | 0.00 | 0.00 | 99 | 1013.2 |
| 20260509124634 | 21 | 201 | 1.6 | 3.2 | 0.00 | 0.00 | 0.00 | 99 | 1013.1 |
| 20260509124131 | 21 | 257 | 1.6 | 1.6 | 0.00 | 0.00 | 0.00 | 99 | 1013.3 |
| 20260509123629 | 22 | 285 | 0.0 | 0.0 | 0.00 | 0.00 | 0.00 | 99 | 1013.4 |
| 20260509123126 | 21 | 260 | 0.0 | 1.6 | 0.00 | 0.00 | 0.00 | 99 | 1013.1 |
| 20260509122621 | 21 | 276 | 0.0 | 1.6 | 0.00 | 0.00 | 0.00 | 99 | 1013.0 |
| 20260509122119 | 21 | 162 | 4.8 | 4.8 | 0.00 | 0.00 | 0.00 | 99 | 1012.9 |
| 20260509121615 | 21 | 214 | 0.0 | 0.0 | 0.00 | 0.00 | 0.00 | 99 | 1012.7 |
| 20260509121113 | 21 | 220 | 0.0 | 0.0 | 0.00 | 0.00 | 0.00 | 99 | 1012.7 |
| 20260509120611 | 21 | 224 | 0.0 | 0.0 | 0.00 | 0.00 | 0.00 | 99 | 1012.6 |
| 20260509120109 | 21 | 244 | 0.0 | 0.0 | 0.00 | 0.00 | 0.00 | 99 | 1012.5 |
| 20260509115606 | 21 | 246 | 0.0 | 0.0 | 0.00 | 0.00 | 0.00 | 99 | 1012.9 |
| 20260509115104 | 20 | 246 | 0.0 | 0.0 | 0.00 | 0.00 | 0.00 | 99 | 1013.0 |
| 20260509114602 | 20 | 246 | 0.0 | 0.0 | 0.00 | 0.00 | 0.00 | 99 | 1012.9 |
| 20260509114100 | 20 | 246 | 0.0 | 0.0 | 0.00 | 0.00 | 0.00 | 99 | 1012.7 |
| 20260509113558 | 20 | 246 | 0.0 | 0.0 | 0.00 | 0.00 | 0.00 | 99 | 1012.8 |
| 20260509113055 | 20 | 246 | 0.0 | 0.0 | 0.00 | 0.00 | 0.00 | 99 | 1012.5 |
| 20260509112552 | 19 | 246 | 0.0 | 0.0 | 0.00 | 0.00 | 0.00 | 99 | 1012.5 |
| 20260509112049 | 19 | 246 | 0.0 | 0.0 | 0.00 | 0.00 | 0.00 | 99 | 1012.6 |
| 20260509111546 | 19 | 245 | 0.0 | 0.0 | 0.00 | 0.00 | 0.00 | 99 | 1012.5 |
| 20260509111043 | 19 | 244 | 0.0 | 0.0 | 0.00 | 0.00 | 0.00 | 99 | 1012.6 |
| 20260509110540 | 20 | 249 | 0.0 | 0.0 | 0.00 | 0.00 | 0.00 | 99 | 1012.4 |
| 20260509110037 | 19 | 251 | 0.0 | 0.0 | 0.00 | 0.00 | 0.00 | 99 | 1012.2 |
| 20260509105535 | 19 | 251 | 0.0 | 0.0 | 0.00 | 0.00 | 0.00 | 99 | 1012.4 |